�v������,���r���O(���x),�����t���O,���r���O(���x),�����t���O,��1(���x),�����t���O,��2���x),�����t���O,�������x,�����t���O,�C�ۑ�(���x),�����t���O,�C�ۑ�(���x),�����t���O
9/1/2003 0:00,25.5,0,76.6,0,27.2,0,26.5,0,24.5,0,20.6,0,89.8,0
9/1/2003 0:15,25.7,0,77.2,0,27.2,0,26.5,0,24.4,0,20.5,0,90.3,0
9/1/2003 0:30,25.6,0,77.8,0,27.1,0,26.4,0,24.4,0,20.5,0,90.8,0
9/1/2003 0:45,25.6,0,78.4,0,27,0,26.4,0,24.4,0,20.4,0,91.3,0
9/1/2003 1:00,25.6,0,79.1,0,27,0,26.3,0,24.3,0,20.4,0,91.8,0
9/1/2003 1:15,25.5,0,78.4,0,26.9,0,26.3,0,24.3,0,20.3,0,92.1,0
9/1/2003 1:30,25.5,0,77.8,0,26.8,0,26.2,0,24.3,0,20.2,0,92.3,0
9/1/2003 1:45,25.5,0,77.5,0,26.7,0,26.2,0,24.4,0,20.2,0,92.6,0
9/1/2003 2:00,25.4,0,77.3,0,26.6,0,26.2,0,24.4,0,20.1,0,92.8,0
9/1/2003 2:15,25.4,0,77.2,0,26.5,0,26.1,0,24.4,0,20.1,0,93.3,0
9/1/2003 2:30,25.4,0,77,0,26.5,0,26.1,0,24.4,0,20,0,93.8,0
9/1/2003 2:45,25.4,0,76.9,0,26.4,0,26,0,24.4,0,20,0,94.3,0
9/1/2003 3:00,25.3,0,76.3,0,26.3,0,26,0,24.4,0,20,0,94.8,0
9/1/2003 3:15,25.2,0,76.4,0,26.3,0,25.9,0,24.2,0,19.9,0,94.6,0
9/1/2003 3:30,25.2,0,76.4,0,26.2,0,25.9,0,24.2,0,19.9,0,94.3,0
9/1/2003 3:45,25.2,0,76.5,0,26.1,0,25.8,0,24.2,0,19.8,0,94.1,0
9/1/2003 4:00,25.2,0,76.5,0,26.1,0,25.8,0,24.2,0,19.8,0,93.8,0
9/1/2003 4:15,25.1,0,76.5,0,26,0,25.7,0,24.2,0,19.9,0,93.6,0
9/1/2003 4:30,25.1,0,76.5,0,25.9,0,25.7,0,24.2,0,20,0,93.3,0
9/1/2003 4:45,25.1,0,76.5,0,25.9,0,25.6,0,24.2,0,20.1,0,93.1,0
9/1/2003 5:00,25,0,76.4,0,25.9,0,25.6,0,24.2,0,20.2,0,92.8,0
9/1/2003 5:15,25,0,76.3,0,25.8,0,25.5,0,24.2,0,20.1,0,92.8,0
9/1/2003 5:30,25,0,76.3,0,25.7,0,25.5,0,24.2,0,20.1,0,92.8,0
9/1/2003 5:45,24.9,0,76.4,0,25.7,0,25.5,0,24,0,20,0,92.8,0
9/1/2003 6:00,24.9,0,76.3,0,25.6,0,25.4,0,24,0,20,0,92.8,0
9/1/2003 6:15,24.9,0,76.4,0,25.5,0,25.4,0,24,0,20.1,0,92.6,0
9/1/2003 6:30,24.9,0,76.9,0,25.5,0,25.3,0,24,0,20.1,0,92.3,0
9/1/2003 6:45,25,0,77.3,0,25.5,0,25.3,0,24,0,20.2,0,92.1,0
9/1/2003 7:00,25,0,78.6,0,25.5,0,25.3,0,24.1,0,20.3,0,91.8,0
9/1/2003 7:15,25,0,78.6,0,25.4,0,25.2,0,24.1,0,20.4,0,91.6,0
9/1/2003 7:30,25,0,78.6,0,25.4,0,25.2,0,24.1,0,20.5,0,91.3,0
9/1/2003 7:45,25,0,78.4,0,25.4,0,25.2,0,24.1,0,20.6,0,91.1,0
9/1/2003 8:00,25,0,78.9,0,25.4,0,25.2,0,24.1,0,20.7,0,90.8,0
9/1/2003 8:15,25,0,77.9,0,25.4,0,25.2,0,24.1,0,20.7,0,90.6,0
9/1/2003 8:30,25,0,78.5,0,25.4,0,25.2,0,24.5,0,20.8,0,90.3,0
9/1/2003 8:45,25,0,78.5,0,25.4,0,25.2,0,24.5,0,20.8,0,90.1,0
9/1/2003 9:00,25.1,0,79.1,0,25.4,0,25.2,0,24.5,0,20.9,0,89.8,0
9/1/2003 9:15,24.9,0,77.6,0,25.4,0,25.3,0,24.4,0,21.1,0,89.3,0
9/1/2003 9:30,25,0,78,0,25.4,0,25.3,0,24.4,0,21.2,0,88.8,0
9/1/2003 9:45,24.8,0,77.6,0,25.4,0,25.3,0,24.4,0,21.4,0,88.3,0
9/1/2003 10:00,24.8,0,77.7,0,25.4,0,25.3,0,24.4,0,21.6,0,87.8,0
9/1/2003 10:15,24.8,0,77.1,0,25.3,0,25.2,0,24.4,0,21.8,0,87.1,0
9/1/2003 10:30,24.7,0,78.3,0,25.2,0,25.2,0,24.4,0,22,0,86.3,0
9/1/2003 10:45,24.6,0,78,0,25.1,0,25.2,0,24.3,0,22.2,0,85.6,0
9/1/2003 11:00,24.6,0,78.2,0,25,0,25.2,0,24.3,0,22.4,0,84.8,0
9/1/2003 11:15,24.6,0,78.6,0,25,0,25.2,0,24.3,0,22.6,0,84.3,0
9/1/2003 11:30,24.5,0,78.6,0,24.9,0,25.1,0,24.3,0,22.8,0,83.8,0
9/1/2003 11:45,24.5,0,79.5,0,24.9,0,25.1,0,24.3,0,23.1,0,83.3,0
9/1/2003 12:00,24.6,0,79.2,0,24.8,0,25.1,0,24.3,0,23.3,0,82.8,0
9/1/2003 12:15,24.6,0,78.5,0,24.8,0,25.2,0,24.3,0,23.4,0,82.3,0
9/1/2003 12:30,24.6,0,78.5,0,24.8,0,25.2,0,24.3,0,23.6,0,81.8,0
9/1/2003 12:45,24.6,0,78.6,0,24.8,0,25.2,0,24.3,0,23.7,0,81.3,0
9/1/2003 13:00,24.6,0,78.8,0,24.8,0,25.3,0,24.3,0,23.9,0,80.8,0
9/1/2003 13:15,24.6,0,78.7,0,24.8,0,25.3,0,24.1,0,23.9,0,80.8,0
9/1/2003 13:30,24.7,0,78.6,0,24.9,0,25.4,0,24.2,0,24,0,80.8,0
9/1/2003 13:45,24.7,0,79.3,0,24.9,0,25.4,0,24.2,0,24,0,80.8,0
9/1/2003 14:00,24.7,0,80.3,0,25,0,25.5,0,24.4,0,24.1,0,80.8,0
9/1/2003 14:15,24.7,0,80.4,0,25.1,0,25.5,0,24.4,0,24.1,0,81.1,0
9/1/2003 14:30,24.8,0,80.3,0,25.1,0,25.6,0,24.5,0,24,0,81.3,0
9/1/2003 14:45,24.8,0,80.6,0,25.2,0,25.6,0,24.5,0,24,0,81.6,0
9/1/2003 15:00,24.9,0,80.5,0,25.2,0,25.6,0,24.5,0,24,0,81.8,0
9/1/2003 15:15,24.8,0,79.8,0,25.1,0,25.6,0,24.5,0,23.8,0,82.8,0
9/1/2003 15:30,24.8,0,79.4,0,25,0,25.6,0,24.5,0,23.7,0,83.8,0
9/1/2003 15:45,24.8,0,79.4,0,25.1,0,25.6,0,24.5,0,23.5,0,84.8,0
9/1/2003 16:00,24.8,0,79,0,25.1,0,25.6,0,24.3,0,23.4,0,85.8,0
9/1/2003 16:15,24.8,0,79,0,25.1,0,25.6,0,24.3,0,23.2,0,86.6,0
9/1/2003 16:30,24.8,0,79.2,0,25,0,25.6,0,24.3,0,23,0,87.3,0
9/1/2003 16:45,24.8,0,79.7,0,25.1,0,25.5,0,24.3,0,22.8,0,88.1,0
9/1/2003 17:00,24.7,0,79.5,0,25.1,0,25.5,0,24.3,0,22.6,0,88.8,0
9/1/2003 17:15,24.7,0,79.7,0,25.2,0,25.5,0,24.3,0,22.4,0,88.8,0
9/1/2003 17:30,24.7,0,79.6,0,25.2,0,25.5,0,24.3,0,22.3,0,88.8,0
9/1/2003 17:45,24.7,0,79.6,0,25.2,0,25.5,0,24.3,0,22.1,0,88.8,0
9/1/2003 18:00,24.7,0,80.6,0,25.2,0,25.5,0,24.4,0,22,0,88.8,0
9/1/2003 18:15,24.8,0,83.8,0,25.2,0,25.5,0,24.4,0,21.9,0,89.6,0
9/1/2003 18:30,24.8,0,83.3,0,25.2,0,25.5,0,24.4,0,21.8,0,90.3,0
9/1/2003 18:45,24.8,0,82.2,0,25.2,0,25.4,0,24.3,0,21.7,0,91.1,0
9/1/2003 19:00,24.9,0,81.8,0,25.2,0,25.4,0,24.3,0,21.6,0,91.8,0
9/1/2003 19:15,24.9,0,81.3,0,25.2,0,25.4,0,24.3,0,21.6,0,91.6,0
9/1/2003 19:30,24.9,0,82.3,0,25.2,0,25.4,0,24.3,0,21.5,0,91.3,0
9/1/2003 19:45,24.9,0,82.9,0,25.2,0,25.4,0,24.3,0,21.5,0,91.1,0
9/1/2003 20:00,25,0,83.9,0,25.2,0,25.3,0,24.3,0,21.5,0,90.8,0
9/1/2003 20:15,25,0,84.3,0,25.2,0,25.3,0,24.2,0,21.5,0,90.8,0
9/1/2003 20:30,25.1,0,84.9,0,25.1,0,25.3,0,24.2,0,21.5,0,90.8,0
9/1/2003 20:45,25.2,0,86.1,0,25.1,0,25.3,0,24.2,0,21.5,0,90.8,0
9/1/2003 21:00,25.3,0,86.6,0,25.1,0,25.3,0,24.2,0,21.5,0,90.8,0
9/1/2003 21:15,25.2,0,84.1,0,25.1,0,25.3,0,24.2,0,21.5,0,90.8,0
9/1/2003 21:30,25.2,0,84.7,0,25.2,0,25.3,0,24.2,0,21.5,0,90.8,0
9/1/2003 21:45,25.4,0,88.7,0,25.3,0,25.3,0,24.2,0,21.6,0,90.8,0
9/1/2003 22:00,25.4,0,88.4,0,25.3,0,25.2,0,24.2,0,21.6,0,90.8,0
9/1/2003 22:15,25.3,0,86.4,0,25.4,0,25.2,0,24.2,0,21.6,0,90.8,0
9/1/2003 22:30,25.2,0,85.8,0,25.4,0,25.2,0,24.2,0,21.6,0,90.8,0
9/1/2003 22:45,25.2,0,85.5,0,25.4,0,25.2,0,24.2,0,21.6,0,90.8,0
9/1/2003 23:00,25.1,0,83.6,0,25.4,0,25.2,0,24.2,0,21.6,0,90.8,0
9/1/2003 23:15,25,0,82.7,0,25.4,0,25.2,0,24.2,0,21.5,0,91.1,0
9/1/2003 23:30,25,0,83.1,0,25.4,0,25.2,0,24.1,0,21.5,0,91.3,0
9/1/2003 23:45,25,0,83.2,0,25.4,0,25.2,0,24.1,0,21.4,0,91.6,0
9/2/2003 0:00,25,0,83,0,25.4,0,25.1,0,24.1,0,21.4,0,91.8,0
9/2/2003 0:15,25,0,83.1,0,25.4,0,25.1,0,24.1,0,21.3,0,92.1,0
9/2/2003 0:30,25.2,0,84,0,25.4,0,25.1,0,24,0,21.2,0,92.3,0
9/2/2003 0:45,25.2,0,83.7,0,25.5,0,25.1,0,24,0,21.2,0,92.6,0
9/2/2003 1:00,25.2,0,83.4,0,25.6,0,25.1,0,24,0,21.1,0,92.8,0
9/2/2003 1:15,25.2,0,83,0,25.6,0,25,0,24,0,21.1,0,92.6,0
9/2/2003 1:30,25.2,0,82.9,0,25.7,0,25,0,24,0,21.1,0,92.3,0
9/2/2003 1:45,25.3,0,82.7,0,25.8,0,25,0,24.1,0,21.1,0,92.1,0
9/2/2003 2:00,25.3,0,82.6,0,25.9,0,25,0,24.1,0,21.1,0,91.8,0
9/2/2003 2:15,25.3,0,82.5,0,25.9,0,25,0,24.1,0,21.1,0,91.8,0
9/2/2003 2:30,25.3,0,82.4,0,26,0,24.9,0,24.1,0,21.2,0,91.8,0
9/2/2003 2:45,25.2,0,82.2,0,26,0,24.9,0,24.1,0,21.2,0,91.8,0
9/2/2003 3:00,25.2,0,82.1,0,26.1,0,24.9,0,23.9,0,21.3,0,91.8,0
9/2/2003 3:15,25.2,0,82.1,0,26.1,0,24.9,0,23.9,0,21.3,0,91.8,0
9/2/2003 3:30,25.2,0,82.1,0,26.2,0,24.9,0,23.9,0,21.3,0,91.8,0
9/2/2003 3:45,25.2,0,82.1,0,26.2,0,24.8,0,23.9,0,21.4,0,91.8,0
9/2/2003 4:00,25.2,0,82.1,0,26.2,0,24.8,0,23.9,0,21.4,0,91.8,0
9/2/2003 4:15,25.2,0,82.1,0,26.2,0,24.8,0,23.9,0,21.4,0,91.6,0
9/2/2003 4:30,25.2,0,82.2,0,26.3,0,24.8,0,23.9,0,21.4,0,91.3,0
9/2/2003 4:45,25.2,0,82.1,0,26.3,0,24.8,0,23.9,0,21.5,0,91.1,0
9/2/2003 5:00,25.2,0,82.1,0,26.3,0,24.8,0,23.9,0,21.5,0,90.8,0
9/2/2003 5:15,25.2,0,81.9,0,26.3,0,24.7,0,23.7,0,21.5,0,90.8,0
9/2/2003 5:30,25.2,0,81.9,0,26.4,0,24.7,0,23.7,0,21.5,0,90.8,0
9/2/2003 5:45,25.1,0,81.8,0,26.4,0,24.7,0,23.8,0,21.6,0,90.8,0
9/2/2003 6:00,25.1,0,81.6,0,26.4,0,24.7,0,23.8,0,21.6,0,90.8,0
9/2/2003 6:15,25.1,0,79.8,0,26.4,0,24.7,0,24,0,21.8,0,90.1,0
9/2/2003 6:30,25.1,0,80.8,0,26.3,0,24.7,0,24.1,0,22,0,89.3,0
9/2/2003 6:45,25,0,81.4,0,26.3,0,24.8,0,24.1,0,22.2,0,88.6,0
9/2/2003 7:00,25,0,80.5,0,26.2,0,24.8,0,24.1,0,22.4,0,87.8,0
9/2/2003 7:15,25,0,81.3,0,26.2,0,24.9,0,24.1,0,22.7,0,86.6,0
9/2/2003 7:30,25,0,81.2,0,26.1,0,25,0,24,0,23.1,0,85.3,0
9/2/2003 7:45,24.9,0,80.5,0,26.1,0,25,0,24.4,0,23.4,0,84.1,0
9/2/2003 8:00,25,0,80.6,0,26.1,0,25.2,0,24.4,0,23.8,0,82.8,0
9/2/2003 8:15,24.9,0,81.1,0,26.1,0,25.3,0,24.3,0,24.1,0,81.8,0
9/2/2003 8:30,25,0,80.8,0,26.2,0,25.4,0,24.3,0,24.5,0,80.8,0
9/2/2003 8:45,25.1,0,80.3,0,26.4,0,25.6,0,24.3,0,24.8,0,79.8,0
9/2/2003 9:00,25.2,0,79.9,0,26.6,0,25.9,0,24.4,0,25.2,0,78.8,0
9/2/2003 9:15,25.3,0,80.8,0,26.9,0,26.2,0,24.4,0,25.5,0,77.1,0
9/2/2003 9:30,25.4,0,80.1,0,27.1,0,26.5,0,24.4,0,25.9,0,75.3,0
9/2/2003 9:45,25.6,0,79.7,0,27.4,0,26.8,0,24.4,0,26.2,0,73.6,0
9/2/2003 10:00,25.7,0,80.1,0,27.7,0,27.2,0,24.1,0,26.6,0,71.8,0
9/2/2003 10:15,25.7,0,80.3,0,27.9,0,27.4,0,24.1,0,27,0,71.3,0
9/2/2003 10:30,25.8,0,79.7,0,28,0,27.6,0,24.1,0,27.3,0,70.8,0
9/2/2003 10:45,25.9,0,79.6,0,28.1,0,27.7,0,24.1,0,27.7,0,70.3,0
9/2/2003 11:00,26,0,79.7,0,28.2,0,27.9,0,24.1,0,28.1,0,69.8,0
9/2/2003 11:15,26,0,79.9,0,28.3,0,28,0,24.2,0,28.2,0,69.8,0
9/2/2003 11:30,26.1,0,80,0,28.4,0,28.2,0,23.9,0,28.2,0,69.8,0
9/2/2003 11:45,26.2,0,79.6,0,28.5,0,28.3,0,23.9,0,28.3,0,69.8,0
9/2/2003 12:00,26.3,0,80.1,0,28.5,0,28.4,0,24,0,28.4,0,69.8,0
9/2/2003 12:15,26.3,0,79.6,0,28.6,0,28.5,0,24,0,28.6,0,69.6,0
9/2/2003 12:30,26.5,0,78.8,0,28.8,0,28.7,0,24.2,0,28.7,0,69.3,0
9/2/2003 12:45,26.6,0,79.6,0,28.9,0,28.9,0,24.2,0,28.9,0,69.1,0
9/2/2003 13:00,26.7,0,79.9,0,29.1,0,29,0,24.2,0,29.1,0,68.8,0
9/2/2003 13:15,26.7,0,80,0,29.2,0,29.2,0,24.4,0,29.1,0,69.1,0
9/2/2003 13:30,26.8,0,79.3,0,29.4,0,29.4,0,24.4,0,29.1,0,69.3,0
9/2/2003 13:45,0,0,0,0,30.1,0,0,0,0,0,29.1,0,69.6,0
9/2/2003 14:00,0,0,0,0,30.1,0,0,0,0,0,29.1,0,69.8,0
9/2/2003 14:15,0,0,0,0,29.9,0,0,0,0,0,28.9,0,70.1,0
9/2/2003 14:30,0,0,0,0,29.9,0,0,0,0,0,28.8,0,70.3,0
9/2/2003 14:45,0,0,0,0,30,0,0,0,0,0,28.6,0,70.6,0
9/2/2003 15:00,0,0,0,0,30.1,0,0,0,0,0,28.5,0,70.8,0
9/2/2003 15:15,0,0,0,0,30.2,0,0,0,0,0,28.5,0,72.1,0
9/2/2003 15:30,0,0,0,0,30.2,0,0,0,0,0,28.5,0,73.3,0
9/2/2003 15:45,0,0,0,0,30.3,0,0,0,0,0,28.6,0,74.6,0
9/2/2003 16:00,0,0,0,0,30.3,0,0,0,0,0,28.6,0,75.8,0
9/2/2003 16:15,0,0,0,0,30.3,0,0,0,0,0,28.4,0,76.6,0
9/2/2003 16:30,0,0,0,0,30.4,0,0,0,0,0,28.1,0,77.3,0
9/2/2003 16:45,0,0,0,0,30.4,0,0,0,0,0,27.9,0,78.1,0
9/2/2003 17:00,0,0,0,0,30.3,0,0,0,0,0,27.7,0,78.8,0
9/2/2003 17:15,0,0,0,0,30.3,0,0,0,0,0,27.7,0,79.8,0
9/2/2003 17:30,0,0,0,0,30.2,0,0,0,0,0,27.6,0,80.8,0
9/2/2003 17:45,0,0,0,0,30.2,0,0,0,0,0,27.6,0,81.8,0
9/2/2003 18:00,0,0,0,0,30.1,0,0,0,0,0,27.6,0,82.8,0
9/2/2003 18:15,0,0,0,0,30,0,0,0,0,0,27.4,0,82.3,0
9/2/2003 18:30,0,0,0,0,30,0,0,0,0,0,27.2,0,81.8,0
9/2/2003 18:45,0,0,0,0,29.9,0,0,0,0,0,27.1,0,81.3,0
9/2/2003 19:00,0,0,0,0,29.8,0,0,0,0,0,26.9,0,80.8,0
9/2/2003 19:15,0,0,0,0,29.7,0,0,0,0,0,26.8,0,81.3,0
9/2/2003 19:30,0,0,0,0,29.6,0,0,0,0,0,26.8,0,81.8,0
9/2/2003 19:45,0,0,0,0,29.5,0,0,0,0,0,26.7,0,82.3,0
9/2/2003 20:00,0,0,0,0,29.4,0,0,0,0,0,26.7,0,82.8,0
9/2/2003 20:15,0,0,0,0,29.4,0,0,0,0,0,26.7,0,83.1,0
9/2/2003 20:30,0,0,0,0,29.3,0,0,0,0,0,26.6,0,83.3,0
9/2/2003 20:45,0,0,0,0,29.2,0,0,0,0,0,26.6,0,83.6,0
9/2/2003 21:00,0,0,0,0,29.1,0,0,0,0,0,26.6,0,83.8,0
9/2/2003 21:15,0,0,0,0,29,0,0,0,0,0,26.5,0,84.3,0
9/2/2003 21:30,0,0,0,0,28.9,0,0,0,0,0,26.3,0,84.8,0
9/2/2003 21:45,0,0,0,0,28.9,0,0,0,0,0,26.2,0,85.3,0
9/2/2003 22:00,0,0,0,0,28.9,0,0,0,0,0,26.1,0,85.8,0
9/2/2003 22:15,0,0,0,0,28.6,0,0,0,0,0,26,0,86.3,0
9/2/2003 22:30,0,0,0,0,28.3,0,0,0,0,0,25.8,0,86.8,0
9/2/2003 22:45,0,0,0,0,28.1,0,0,0,0,0,25.7,0,87.3,0
9/2/2003 23:00,0,0,0,0,28,0,0,0,0,0,25.6,0,87.8,0
9/2/2003 23:15,0,0,0,0,27.8,0,0,0,0,0,25.6,0,87.8,0
9/2/2003 23:30,0,0,0,0,27.5,0,0,0,0,0,25.6,0,87.8,0
9/2/2003 23:45,0,0,0,0,27.4,0,0,0,0,0,25.7,0,87.8,0
9/3/2003 0:00,0,0,0,0,27.2,0,0,0,0,0,25.7,0,87.8,0
9/3/2003 0:15,0,0,0,0,27.1,0,0,0,0,0,25.8,0,88.1,0
9/3/2003 0:30,0,0,0,0,27,0,0,0,0,0,25.8,0,88.3,0
9/3/2003 0:45,0,0,0,0,27.2,0,0,0,0,0,25.9,0,88.6,0
9/3/2003 1:00,0,0,0,0,27.4,0,0,0,0,0,26,0,88.8,0
9/3/2003 1:15,0,0,0,0,27.5,0,0,0,0,0,26.1,0,88.6,0
9/3/2003 1:30,0,0,0,0,27.7,0,0,0,0,0,26.1,0,88.3,0
9/3/2003 1:45,0,0,0,0,27.8,0,0,0,0,0,26.2,0,88.1,0
9/3/2003 2:00,0,0,0,0,27.9,0,0,0,0,0,26.3,0,87.8,0
9/3/2003 2:15,0,0,0,0,28.1,0,0,0,0,0,26.2,0,87.8,0
9/3/2003 2:30,0,0,0,0,28.2,0,0,0,0,0,26.1,0,87.8,0
9/3/2003 2:45,0,0,0,0,28.2,0,0,0,0,0,26,0,87.8,0
9/3/2003 3:00,0,0,0,0,28.3,0,0,0,0,0,25.9,0,87.8,0
9/3/2003 3:15,0,0,0,0,28.4,0,0,0,0,0,25.9,0,88.3,0
9/3/2003 3:30,0,0,0,0,28.4,0,0,0,0,0,25.8,0,88.8,0
9/3/2003 3:45,0,0,0,0,28.4,0,0,0,0,0,25.8,0,89.3,0
9/3/2003 4:00,0,0,0,0,28.4,0,0,0,0,0,25.8,0,89.8,0
9/3/2003 4:15,0,0,0,0,28.5,0,0,0,0,0,25.9,0,90.6,0
9/3/2003 4:30,0,0,0,0,28.5,0,0,0,0,0,25.9,0,91.3,0
9/3/2003 4:45,0,0,0,0,28.5,0,0,0,0,0,26,0,92.1,0
9/3/2003 5:00,0,0,0,0,28.5,0,0,0,0,0,26.1,0,92.8,0
9/3/2003 5:15,0,0,0,0,28.5,0,0,0,0,0,26,0,92.3,0
9/3/2003 5:30,0,0,0,0,28.5,0,0,0,0,0,25.9,0,91.8,0
9/3/2003 5:45,0,0,0,0,28.4,0,0,0,0,0,25.8,0,91.3,0
9/3/2003 6:00,0,0,0,0,28.4,0,0,0,0,0,25.7,0,90.8,0
9/3/2003 6:15,0,0,0,0,28.4,0,0,0,0,0,25.9,0,91.1,0
9/3/2003 6:30,0,0,0,0,28.4,0,0,0,0,0,26,0,91.3,0
9/3/2003 6:45,0,0,0,0,28.4,0,0,0,0,0,26.2,0,91.6,0
9/3/2003 7:00,0,0,0,0,28.5,0,0,0,0,0,26.4,0,91.8,0
9/3/2003 7:15,0,0,0,0,28.6,0,0,0,0,0,26.5,0,90.8,0
9/3/2003 7:30,0,0,0,0,28.6,0,0,0,0,0,26.6,0,89.8,0
9/3/2003 7:45,0,0,0,0,28.8,0,0,0,0,0,26.7,0,88.8,0
9/3/2003 8:00,0,0,0,0,29,0,0,0,0,0,26.8,0,87.8,0
9/3/2003 8:15,0,0,0,0,29.2,0,0,0,0,0,27,0,86.6,0
9/3/2003 8:30,0,0,0,0,29.5,0,0,0,0,0,27.3,0,85.3,0
9/3/2003 8:45,0,0,0,0,29.8,0,0,0,0,0,27.5,0,84.1,0
9/3/2003 9:00,0,0,0,0,30.1,0,0,0,0,0,27.8,0,82.8,0
9/3/2003 9:15,0,0,0,0,30.4,0,0,0,0,0,28.1,0,81.8,0
9/3/2003 9:30,0,0,0,0,30.8,0,0,0,0,0,28.4,0,80.8,0
9/3/2003 9:45,0,0,0,0,31.1,0,0,0,0,0,28.8,0,79.8,0
9/3/2003 10:00,0,0,0,0,31.4,0,0,0,0,0,29.1,0,78.8,0
9/3/2003 10:15,0,0,0,0,31.7,0,0,0,0,0,29.3,0,76.8,0
9/3/2003 10:30,0,0,0,0,31.9,0,0,0,0,0,29.5,0,74.8,0
9/3/2003 10:45,0,0,0,0,32,0,0,0,0,0,29.7,0,72.8,0
9/3/2003 11:00,0,0,0,0,32.2,0,0,0,0,0,29.9,0,70.8,0
9/3/2003 11:15,0,0,0,0,32.5,0,0,0,0,0,30.2,0,68.6,0
9/3/2003 11:30,0,0,0,0,32.6,0,0,0,0,0,30.4,0,66.3,0
9/3/2003 11:45,0,0,0,0,32.7,0,0,0,0,0,30.7,0,64.1,0
9/3/2003 12:00,0,0,0,0,32.9,0,0,0,0,0,31,0,61.8,0
9/3/2003 12:15,0,0,0,0,33.1,0,0,0,0,0,31.3,0,61.3,0
9/3/2003 12:30,0,0,0,0,33.2,0,0,0,0,0,31.5,0,60.8,0
9/3/2003 12:45,0,0,0,0,33.3,0,0,0,0,0,31.8,0,60.3,0
9/3/2003 13:00,0,0,0,0,33.4,0,0,0,0,0,32.1,0,59.8,0
9/3/2003 13:15,0,0,0,0,33.5,0,0,0,0,0,32,0,60.5,0
9/3/2003 13:30,0,0,0,0,33.5,0,0,0,0,0,32,0,61.3,0
9/3/2003 13:45,0,0,0,0,33.6,0,0,0,0,0,31.9,0,62,0
9/3/2003 14:00,0,0,0,0,33.7,0,0,0,0,0,31.9,0,62.8,0
9/3/2003 14:15,0,0,0,0,33.7,0,0,0,0,0,31.4,0,65.8,0
9/3/2003 14:30,0,0,0,0,33.7,0,0,0,0,0,31,0,68.8,0
9/3/2003 14:45,0,0,0,0,33.7,0,0,0,0,0,30.5,0,71.8,0
9/3/2003 15:00,0,0,0,0,33.7,0,0,0,0,0,30.1,0,74.8,0
9/3/2003 15:15,0,0,0,0,33.7,0,0,0,0,0,30.1,0,73.8,0
9/3/2003 15:30,0,0,0,0,33.8,0,0,0,0,0,30.1,0,72.8,0
9/3/2003 15:45,0,0,0,0,33.8,0,0,0,0,0,30.1,0,71.8,0
9/3/2003 16:00,0,0,0,0,33.7,0,0,0,0,0,30.1,0,70.8,0
9/3/2003 16:15,0,0,0,0,33.6,0,0,0,0,0,30.2,0,71.3,0
9/3/2003 16:30,0,0,0,0,33.4,0,0,0,0,0,30.3,0,71.8,0
9/3/2003 16:45,0,0,0,0,33.4,0,0,0,0,0,30.4,0,72.3,0
9/3/2003 17:00,0,0,0,0,33.3,0,0,0,0,0,30.5,0,72.8,0
9/3/2003 17:15,0,0,0,0,33.1,0,0,0,0,0,30.4,0,72.6,0
9/3/2003 17:30,0,0,0,0,33.1,0,0,0,0,0,30.3,0,72.3,0
9/3/2003 17:45,0,0,0,0,33,0,0,0,0,0,30.2,0,72.1,0
9/3/2003 18:00,0,0,0,0,33,0,0,0,0,0,30.1,0,71.8,0
9/3/2003 18:15,0,0,0,0,33,0,0,0,0,0,30,0,72.6,0
9/3/2003 18:30,0,0,0,0,32.9,0,0,0,0,0,29.9,0,73.3,0
9/3/2003 18:45,0,0,0,0,32.9,0,0,0,0,0,29.8,0,74.1,0
9/3/2003 19:00,0,0,0,0,32.8,0,0,0,0,0,29.7,0,74.8,0
9/3/2003 19:15,0,0,0,0,32.8,0,0,0,0,0,29.3,0,77.6,0
9/3/2003 19:30,0,0,0,0,32.7,0,0,0,0,0,28.9,0,80.3,0
9/3/2003 19:45,0,0,0,0,32.7,0,0,0,0,0,28.6,0,83.1,0
9/3/2003 20:00,0,0,0,0,32.6,0,0,0,0,0,28.2,0,85.8,0
9/3/2003 20:15,0,0,0,0,32.5,0,0,0,0,0,27.9,0,86.3,0
9/3/2003 20:30,0,0,0,0,32.4,0,0,0,0,0,27.7,0,86.8,0
9/3/2003 20:45,0,0,0,0,32,0,0,0,0,0,27.4,0,87.3,0
9/3/2003 21:00,0,0,0,0,31.1,0,0,0,0,0,27.2,0,87.8,0
9/3/2003 21:15,0,0,0,0,30.2,0,0,0,0,0,27,0,88.3,0
9/3/2003 21:30,0,0,0,0,29.5,0,0,0,0,0,26.8,0,88.8,0
9/3/2003 21:45,0,0,0,0,29.1,0,0,0,0,0,26.6,0,89.3,0
9/3/2003 22:00,0,0,0,0,28.8,0,0,0,0,0,26.4,0,89.8,0
9/3/2003 22:15,0,0,0,0,28.5,0,0,0,0,0,26.3,0,90.1,0
9/3/2003 22:30,0,0,0,0,28.3,0,0,0,0,0,26.2,0,90.3,0
9/3/2003 22:45,0,0,0,0,28.1,0,0,0,0,0,26.2,0,90.6,0
9/3/2003 23:00,0,0,0,0,27.9,0,0,0,0,0,26.1,0,90.8,0
9/3/2003 23:15,0,0,0,0,27.8,0,0,0,0,0,26,0,91.1,0
9/3/2003 23:30,0,0,0,0,27.6,0,0,0,0,0,25.9,0,91.3,0
9/3/2003 23:45,0,0,0,0,27.5,0,0,0,0,0,25.9,0,91.6,0
9/4/2003 0:00,0,0,0,0,27.5,0,0,0,0,0,25.8,0,91.8,0
9/4/2003 0:15,0,0,0,0,27.4,0,0,0,0,0,25.7,0,91.6,0
9/4/2003 0:30,0,0,0,0,27.5,0,0,0,0,0,25.7,0,91.3,0
9/4/2003 0:45,0,0,0,0,27.7,0,0,0,0,0,25.6,0,91.1,0
9/4/2003 1:00,0,0,0,0,27.8,0,0,0,0,0,25.6,0,90.8,0
9/4/2003 1:15,0,0,0,0,28,0,0,0,0,0,25.5,0,90.3,0
9/4/2003 1:30,0,0,0,0,28.1,0,0,0,0,0,25.5,0,89.8,0
9/4/2003 1:45,0,0,0,0,28.2,0,0,0,0,0,25.4,0,89.3,0
9/4/2003 2:00,0,0,0,0,28.3,0,0,0,0,0,25.4,0,88.8,0
9/4/2003 2:15,0,0,0,0,28.4,0,0,0,0,0,25.3,0,87.1,0
9/4/2003 2:30,0,0,0,0,28.5,0,0,0,0,0,25.3,0,85.3,0
9/4/2003 2:45,0,0,0,0,28.5,0,0,0,0,0,25.2,0,83.6,0
9/4/2003 3:00,0,0,0,0,28.6,0,0,0,0,0,25.2,0,81.8,0
9/4/2003 3:15,0,0,0,0,28.6,0,0,0,0,0,25.1,0,81.8,0
9/4/2003 3:30,0,0,0,0,28.6,0,0,0,0,0,25,0,81.8,0
9/4/2003 3:45,0,0,0,0,28.6,0,0,0,0,0,24.9,0,81.8,0
9/4/2003 4:00,0,0,0,0,28.6,0,0,0,0,0,24.8,0,81.8,0
9/4/2003 4:15,0,0,0,0,28.6,0,0,0,0,0,24.7,0,81.1,0
9/4/2003 4:30,0,0,0,0,28.6,0,0,0,0,0,24.6,0,80.3,0
9/4/2003 4:45,0,0,0,0,28.6,0,0,0,0,0,24.5,0,79.6,0
9/4/2003 5:00,0,0,0,0,28.5,0,0,0,0,0,24.4,0,78.8,0
9/4/2003 5:15,0,0,0,0,28.4,0,0,0,0,0,24.2,0,79.6,0
9/4/2003 5:30,0,0,0,0,28.2,0,0,0,0,0,24.1,0,80.3,0
9/4/2003 5:45,0,0,0,0,28.1,0,0,0,0,0,23.9,0,81.1,0
9/4/2003 6:00,0,0,0,0,28,0,0,0,0,0,23.8,0,81.8,0
9/4/2003 6:15,0,0,0,0,28.1,0,0,0,0,0,23.7,0,81.6,0
9/4/2003 6:30,0,0,0,0,28.1,0,0,0,0,0,23.7,0,81.3,0
9/4/2003 6:45,0,0,0,0,28.1,0,0,0,0,0,23.6,0,81.1,0
9/4/2003 7:00,0,0,0,0,28.2,0,0,0,0,0,23.6,0,80.8,0
9/4/2003 7:15,0,0,0,0,28.2,0,0,0,0,0,23.6,0,80.3,0
9/4/2003 7:30,0,0,0,0,28.2,0,0,0,0,0,23.6,0,79.8,0
9/4/2003 7:45,0,0,0,0,28.1,0,0,0,0,0,23.7,0,79.3,0
9/4/2003 8:00,0,0,0,0,28.1,0,0,0,0,0,23.7,0,78.8,0
9/4/2003 8:15,0,0,0,0,28.1,0,0,0,0,0,23.8,0,76.8,0
9/4/2003 8:30,0,0,0,0,28,0,0,0,0,0,23.8,0,74.8,0
9/4/2003 8:45,0,0,0,0,28,0,0,0,0,0,23.9,0,72.8,0
9/4/2003 9:00,0,0,0,0,27.9,0,0,0,0,0,24,0,70.8,0
9/4/2003 9:15,0,0,0,0,27.9,0,0,0,0,0,23.6,0,74.6,0
9/4/2003 9:30,0,0,0,0,27.8,0,0,0,0,0,23.2,0,78.3,0
9/4/2003 9:45,0,0,0,0,27.7,0,0,0,0,0,22.9,0,82.1,0
9/4/2003 10:00,0,0,0,0,27.7,0,0,0,0,0,22.5,0,85.8,0
9/4/2003 10:15,0,0,0,0,27.7,0,0,0,0,0,22.7,0,82.6,0
9/4/2003 10:30,0,0,0,0,27.8,0,0,0,0,0,22.9,0,79.3,0
9/4/2003 10:45,0,0,0,0,27.9,0,0,0,0,0,23.2,0,76.1,0
9/4/2003 11:00,0,0,0,0,27.9,0,0,0,0,0,23.4,0,72.8,0
9/4/2003 11:15,0,0,0,0,28,0,0,0,0,0,23.6,0,71.8,0
9/4/2003 11:30,0,0,0,0,28.2,0,0,0,0,0,23.7,0,70.8,0
9/4/2003 11:45,0,0,0,0,28.3,0,0,0,0,0,23.9,0,69.8,0
9/4/2003 12:00,0,0,0,0,28.4,0,0,0,0,0,24.1,0,68.8,0
9/4/2003 12:15,0,0,0,0,28.4,0,0,0,0,0,24.7,0,67.1,0
9/4/2003 12:30,0,0,0,0,28.4,0,0,0,0,0,25.2,0,65.3,0
9/4/2003 12:45,0,0,0,0,28.3,0,0,0,0,0,25.8,0,63.6,0
9/4/2003 13:00,0,0,0,0,28.3,0,0,0,0,0,26.4,0,61.8,0
9/4/2003 13:15,0,0,0,0,28.2,0,0,0,0,0,26.8,0,59.5,0
9/4/2003 13:30,0,0,0,0,28.2,0,0,0,0,0,27.1,0,57.3,0
9/4/2003 13:45,0,0,0,0,28.2,0,0,0,0,0,27.5,0,55,0
9/4/2003 14:00,0,0,0,0,28.3,0,0,0,0,0,27.9,0,52.8,0
9/4/2003 14:15,0,0,0,0,28.3,0,0,0,0,0,28,0,50.5,0
9/4/2003 14:30,0,0,0,0,28.3,0,0,0,0,0,28.1,0,48.3,0
9/4/2003 14:45,0,0,0,0,28.3,0,0,0,0,0,28.2,0,46,0
9/4/2003 15:00,0,0,0,0,28.4,0,0,0,0,0,28.3,0,43.8,0
9/4/2003 15:15,0,0,0,0,28.5,0,0,0,0,0,28.4,0,43.8,0
9/4/2003 15:30,0,0,0,0,28.5,0,0,0,0,0,28.5,0,43.8,0
9/4/2003 15:45,0,0,0,0,28.6,0,0,0,0,0,28.7,0,43.8,0
9/4/2003 16:00,0,0,0,0,28.6,0,0,0,0,0,28.8,0,43.8,0
9/4/2003 16:15,0,0,0,0,28.6,0,0,0,0,0,28.6,0,45,0
9/4/2003 16:30,0,0,0,0,28.6,0,0,0,0,0,28.3,0,46.3,0
9/4/2003 16:45,0,0,0,0,28.6,0,0,0,0,0,28.1,0,47.5,0
9/4/2003 17:00,0,0,0,0,28.6,0,0,0,0,0,27.9,0,48.8,0
9/4/2003 17:15,0,0,0,0,28.6,0,0,0,0,0,27.6,0,50,0
9/4/2003 17:30,0,0,0,0,28.5,0,0,0,0,0,27.2,0,51.3,0
9/4/2003 17:45,0,0,0,0,28.5,0,0,0,0,0,26.9,0,52.5,0
9/4/2003 18:00,0,0,0,0,28.4,0,0,0,0,0,26.6,0,53.8,0
9/4/2003 18:15,0,0,0,0,28.2,0,0,0,0,0,26.2,0,55.5,0
9/4/2003 18:30,0,0,0,0,28.1,0,0,0,0,0,25.8,0,57.3,0
9/4/2003 18:45,0,0,0,0,27.9,0,0,0,0,0,25.5,0,59,0
9/4/2003 19:00,0,0,0,0,27.8,0,0,0,0,0,25.1,0,60.8,0
9/4/2003 19:15,0,0,0,0,27.7,0,0,0,0,0,24.8,0,61,0
9/4/2003 19:30,0,0,0,0,27.6,0,0,0,0,0,24.6,0,61.3,0
9/4/2003 19:45,0,0,0,0,27.6,0,0,0,0,0,24.3,0,61.5,0
9/4/2003 20:00,0,0,0,0,27.5,0,0,0,0,0,24.1,0,61.8,0
9/4/2003 20:15,0,0,0,0,27.4,0,0,0,0,0,23.7,0,64.1,0
9/4/2003 20:30,0,0,0,0,27.3,0,0,0,0,0,23.4,0,66.3,0
9/4/2003 20:45,0,0,0,0,27.2,0,0,0,0,0,23,0,68.6,0
9/4/2003 21:00,0,0,0,0,27.2,0,0,0,0,0,22.7,0,70.8,0
9/4/2003 21:15,0,0,0,0,27.1,0,0,0,0,0,22.6,0,72.6,0
9/4/2003 21:30,0,0,0,0,27.1,0,0,0,0,0,22.4,0,74.3,0
9/4/2003 21:45,0,0,0,0,27.1,0,0,0,0,0,22.3,0,76.1,0
9/4/2003 22:00,0,0,0,0,27.1,0,0,0,0,0,22.2,0,77.8,0
9/4/2003 22:15,0,0,0,0,27,0,0,0,0,0,22.2,0,78.6,0
9/4/2003 22:30,0,0,0,0,27,0,0,0,0,0,22.2,0,79.3,0
9/4/2003 22:45,0,0,0,0,27,0,0,0,0,0,22.3,0,80.1,0
9/4/2003 23:00,0,0,0,0,26.9,0,0,0,0,0,22.3,0,80.8,0
9/4/2003 23:15,0,0,0,0,26.9,0,0,0,0,0,22.2,0,81.1,0
9/4/2003 23:30,0,0,0,0,26.9,0,0,0,0,0,22.1,0,81.3,0
9/4/2003 23:45,0,0,0,0,26.8,0,0,0,0,0,22,0,81.6,0
9/5/2003 0:00,0,0,0,0,26.8,0,0,0,0,0,21.9,0,81.8,0
9/5/2003 0:15,0,0,0,0,26.8,0,0,0,0,0,21.9,0,81.8,0
9/5/2003 0:30,0,0,0,0,26.7,0,0,0,0,0,21.9,0,81.8,0
9/5/2003 0:45,0,0,0,0,26.7,0,0,0,0,0,21.9,0,81.8,0
9/5/2003 1:00,0,0,0,0,26.8,0,0,0,0,0,21.9,0,81.8,0
9/5/2003 1:15,0,0,0,0,26.8,0,0,0,0,0,21.9,0,81.8,0
9/5/2003 1:30,0,0,0,0,26.8,0,0,0,0,0,22,0,81.8,0
9/5/2003 1:45,0,0,0,0,26.8,0,0,0,0,0,22,0,81.8,0
9/5/2003 2:00,0,0,0,0,26.8,0,0,0,0,0,22.1,0,81.8,0
9/5/2003 2:15,0,0,0,0,26.8,0,0,0,0,0,22,0,82.6,0
9/5/2003 2:30,0,0,0,0,26.8,0,0,0,0,0,21.9,0,83.3,0
9/5/2003 2:45,0,0,0,0,26.8,0,0,0,0,0,21.9,0,84.1,0
9/5/2003 3:00,0,0,0,0,26.8,0,0,0,0,0,21.8,0,84.8,0
9/5/2003 3:15,0,0,0,0,26.8,0,0,0,0,0,21.7,0,85.3,0
9/5/2003 3:30,0,0,0,0,26.8,0,0,0,0,0,21.6,0,85.8,0
9/5/2003 3:45,0,0,0,0,26.8,0,0,0,0,0,21.6,0,86.3,0
9/5/2003 4:00,0,0,0,0,26.7,0,0,0,0,0,21.5,0,86.8,0
9/5/2003 4:15,0,0,0,0,26.7,0,0,0,0,0,21.4,0,87.1,0
9/5/2003 4:30,0,0,0,0,26.7,0,0,0,0,0,21.4,0,87.3,0
9/5/2003 4:45,0,0,0,0,26.7,0,0,0,0,0,21.3,0,87.6,0
9/5/2003 5:00,0,0,0,0,26.7,0,0,0,0,0,21.3,0,87.8,0
9/5/2003 5:15,0,0,0,0,26.7,0,0,0,0,0,21.3,0,87.8,0
9/5/2003 5:30,0,0,0,0,26.6,0,0,0,0,0,21.3,0,87.8,0
9/5/2003 5:45,0,0,0,0,26.6,0,0,0,0,0,21.4,0,87.8,0
9/5/2003 6:00,0,0,0,0,26.6,0,0,0,0,0,21.4,0,87.8,0
9/5/2003 6:15,0,0,0,0,26.6,0,0,0,0,0,21.7,0,86.3,0
9/5/2003 6:30,0,0,0,0,26.6,0,0,0,0,0,21.9,0,84.8,0
9/5/2003 6:45,0,0,0,0,26.7,0,0,0,0,0,22.2,0,83.3,0
9/5/2003 7:00,0,0,0,0,26.7,0,0,0,0,0,22.5,0,81.8,0
9/5/2003 7:15,0,0,0,0,26.7,0,0,0,0,0,23,0,77.8,0
9/5/2003 7:30,0,0,0,0,26.9,0,0,0,0,0,23.6,0,73.8,0
9/5/2003 7:45,0,0,0,0,27,0,0,0,0,0,24.1,0,69.8,0
9/5/2003 8:00,0,0,0,0,27.2,0,0,0,0,0,24.7,0,65.8,0
9/5/2003 8:15,0,0,0,0,27.4,0,0,0,0,0,25.1,0,62.8,0
9/5/2003 8:30,0,0,0,0,27.6,0,0,0,0,0,25.5,0,59.8,0
9/5/2003 8:45,0,0,0,0,27.8,0,0,0,0,0,26,0,56.8,0
9/5/2003 9:00,0,0,0,0,27.9,0,0,0,0,0,26.4,0,53.8,0
9/5/2003 9:15,0,0,0,0,28.1,0,0,0,0,0,26.7,0,53,0
9/5/2003 9:30,0,0,0,0,28.2,0,0,0,0,0,27.1,0,52.3,0
9/5/2003 9:45,0,0,0,0,28.5,0,0,0,0,0,27.4,0,51.5,0